Time,TemperatureF,DewpointF,PressureIn,WindDirection,WindDirectionDegrees,WindSpeedMPH,WindSpeedGustMPH,Humidity,HourlyPrecipIn,Conditions,Clouds,dailyrainin,SolarRadiationWatts/m^2,SoftwareType,DateUTC
2013-11-03 00:02:00,-999.0,-99.9,29.51,NNW,337,2.0,5.0,-999,-99.99,,,-99.99,0.000000,,2013-11-03 04:02:00,
2013-11-03 00:14:00,48.0,45.0,29.51,NNW,337,2.0,5.0,89,0.00,,,0.05,0.000000,,2013-11-03 04:14:00,
2013-11-03 00:44:00,46.0,39.0,29.53,NNW,327,2.0,7.0,77,0.00,,,0.05,0.000000,,2013-11-03 04:44:00,
2013-11-03 00:52:00,46.0,39.0,29.53,NNW,327,2.0,7.0,77,0.00,,,0.05,0.000000,,2013-11-03 04:52:00,
2013-11-03 01:03:00,46.0,39.0,29.53,NNW,327,2.0,7.0,77,0.00,,,0.05,0.000000,,2013-11-03 05:03:00,
2013-11-03 01:13:00,46.0,39.0,29.53,NNW,327,2.0,7.0,77,0.00,,,0.05,0.000000,,2013-11-03 05:13:00,
2013-11-03 01:43:00,46.0,39.0,29.54,NW,315,3.0,7.0,76,0.00,,,0.05,0.000000,,2013-11-03 05:43:00,
2013-11-03 01:53:00,46.0,39.0,29.54,NW,315,3.0,7.0,76,0.00,,,0.05,0.000000,,2013-11-03 05:53:00,
2013-11-03 01:03:00,46.0,39.0,29.54,NW,315,3.0,7.0,76,0.00,,,0.05,0.000000,,2013-11-03 06:03:00,
2013-11-03 01:12:00,46.0,39.0,29.54,NW,315,3.0,7.0,76,0.00,,,0.05,0.000000,,2013-11-03 06:12:00,
2013-11-03 01:43:00,47.0,39.0,29.55,NW,308,3.0,8.0,73,0.00,,,0.05,0.000000,,2013-11-03 06:43:00,
2013-11-03 01:53:00,47.0,39.0,29.55,NW,308,3.0,8.0,73,0.00,,,0.05,0.000000,,2013-11-03 06:53:00,
2013-11-03 02:02:00,47.0,39.0,29.55,NW,308,3.0,8.0,73,0.00,,,0.05,0.000000,,2013-11-03 07:02:00,
2013-11-03 02:11:00,47.0,39.0,29.55,NW,308,3.0,8.0,73,0.00,,,0.05,0.000000,,2013-11-03 07:11:00,
2013-11-03 02:42:00,42.0,38.0,29.57,North,352,1.0,6.0,86,0.00,,,0.05,0.000000,,2013-11-03 07:42:00,
2013-11-03 02:52:00,42.0,38.0,29.57,North,352,1.0,6.0,86,0.00,,,0.05,0.000000,,2013-11-03 07:52:00,
2013-11-03 03:02:00,42.0,38.0,29.57,North,352,1.0,6.0,86,0.00,,,0.05,0.000000,,2013-11-03 08:02:00,
2013-11-03 03:11:00,42.0,38.0,29.57,North,352,1.0,6.0,86,0.00,,,0.05,0.000000,,2013-11-03 08:11:00,
2013-11-03 03:42:00,42.0,41.0,29.58,NNW,331,2.0,4.0,97,0.00,,,0.05,0.000000,,2013-11-03 08:42:00,
2013-11-03 03:52:00,42.0,41.0,29.58,NNW,331,2.0,4.0,97,0.00,,,0.05,0.000000,,2013-11-03 08:52:00,
2013-11-03 04:02:00,42.0,41.0,29.58,NNW,331,2.0,4.0,97,0.00,,,0.05,0.000000,,2013-11-03 09:02:00,
2013-11-03 04:12:00,42.0,41.0,29.58,NNW,331,2.0,4.0,97,0.00,,,0.05,0.000000,,2013-11-03 09:12:00,
2013-11-03 04:42:00,43.0,42.0,29.60,NW,319,3.0,6.0,95,0.00,,,0.05,0.000000,,2013-11-03 09:42:00,
2013-11-03 04:53:00,43.0,42.0,29.60,NW,319,3.0,6.0,95,0.00,,,0.05,0.000000,,2013-11-03 09:53:00,
2013-11-03 05:03:00,43.0,42.0,29.60,NW,319,3.0,6.0,95,0.00,,,0.05,0.000000,,2013-11-03 10:03:00,
2013-11-03 05:13:00,43.0,42.0,29.60,NW,319,3.0,6.0,95,0.00,,,0.05,0.000000,,2013-11-03 10:13:00,
2013-11-03 05:42:00,41.0,41.0,29.63,NW,305,1.0,7.0,100,0.00,,,0.05,0.000000,,2013-11-03 10:42:00,
2013-11-03 05:53:00,41.0,41.0,29.63,NW,305,1.0,7.0,100,0.00,,,0.05,0.000000,,2013-11-03 10:53:00,
2013-11-03 06:02:00,41.0,41.0,29.63,NW,305,1.0,7.0,100,0.00,,,0.05,0.000000,,2013-11-03 11:02:00,
2013-11-03 06:12:00,41.0,41.0,29.63,NW,305,1.0,7.0,100,0.00,,,0.05,0.000000,,2013-11-03 11:12:00,
2013-11-03 06:43:00,43.0,38.0,29.66,NW,313,5.0,11.0,83,0.00,,,0.05,0.000000,,2013-11-03 11:43:00,
2013-11-03 06:52:00,43.0,38.0,29.66,NW,313,5.0,11.0,83,0.00,,,0.05,0.000000,,2013-11-03 11:52:00,
2013-11-03 07:02:00,43.0,38.0,29.66,NW,313,5.0,11.0,83,0.00,,,0.05,0.000000,,2013-11-03 12:02:00,
2013-11-03 07:12:00,43.0,38.0,29.66,NW,313,5.0,11.0,83,0.00,,,0.05,0.000000,,2013-11-03 12:12:00,
2013-11-03 07:42:00,46.0,40.0,29.69,NW,320,4.0,13.0,79,0.00,,,0.05,12.000000,,2013-11-03 12:42:00,
2013-11-03 07:52:00,46.0,40.0,29.69,NW,320,4.0,13.0,79,0.00,,,0.05,12.000000,,2013-11-03 12:52:00,
2013-11-03 08:02:00,46.0,40.0,29.69,NW,320,4.0,13.0,79,0.00,,,0.05,12.000000,,2013-11-03 13:02:00,
2013-11-03 08:12:00,46.0,40.0,29.69,NW,320,4.0,13.0,79,0.00,,,0.05,12.000000,,2013-11-03 13:12:00,
2013-11-03 08:42:00,52.0,41.0,29.73,NW,311,5.0,33.0,67,0.00,,,0.05,154.000000,,2013-11-03 13:42:00,
2013-11-03 08:52:00,52.0,41.0,29.73,NW,311,5.0,33.0,67,0.00,,,0.05,154.000000,,2013-11-03 13:52:00,
2013-11-03 09:02:00,52.0,41.0,29.73,NW,311,5.0,33.0,67,0.00,,,0.05,154.000000,,2013-11-03 14:02:00,
2013-11-03 09:12:00,52.0,41.0,29.73,NW,311,5.0,33.0,67,0.00,,,0.05,154.000000,,2013-11-03 14:12:00,
2013-11-03 09:42:00,54.0,40.0,29.75,NNW,334,8.0,18.0,58,0.00,,,0.05,327.000000,,2013-11-03 14:42:00,
2013-11-03 09:52:00,54.0,40.0,29.75,NNW,334,8.0,18.0,58,0.00,,,0.05,327.000000,,2013-11-03 14:52:00,
2013-11-03 10:02:00,54.0,40.0,29.75,NNW,334,8.0,18.0,58,0.00,,,0.05,327.000000,,2013-11-03 15:02:00,
2013-11-03 10:11:00,54.0,40.0,29.75,NNW,334,8.0,18.0,58,0.00,,,0.05,327.000000,,2013-11-03 15:11:00,
2013-11-03 10:43:00,58.0,40.0,29.76,NNW,346,8.0,18.0,51,0.00,,,0.05,480.000000,,2013-11-03 15:43:00,
2013-11-03 10:53:00,58.0,40.0,29.76,NNW,346,8.0,18.0,51,0.00,,,0.05,480.000000,,2013-11-03 15:53:00,
2013-11-03 11:03:00,58.0,40.0,29.76,NNW,346,8.0,18.0,51,0.00,,,0.05,480.000000,,2013-11-03 16:03:00,
2013-11-03 11:14:00,58.0,40.0,29.76,NNW,346,8.0,18.0,51,0.00,,,0.05,480.000000,,2013-11-03 16:14:00,
2013-11-03 11:43:00,60.0,40.0,29.77,NNW,338,10.0,20.0,47,0.00,,,0.05,472.000000,,2013-11-03 16:43:00,
2013-11-03 11:53:00,60.0,40.0,29.77,NNW,338,10.0,20.0,47,0.00,,,0.05,472.000000,,2013-11-03 16:53:00,
2013-11-03 12:03:00,60.0,40.0,29.77,NNW,338,10.0,20.0,47,0.00,,,0.05,472.000000,,2013-11-03 17:03:00,
2013-11-03 12:13:00,60.0,40.0,29.77,NNW,338,10.0,20.0,47,0.00,,,0.05,472.000000,,2013-11-03 17:13:00,
2013-11-03 12:44:00,61.0,40.0,29.77,North,2,8.0,18.0,45,0.00,,,0.05,198.000000,,2013-11-03 17:44:00,
2013-11-03 12:53:00,61.0,40.0,29.77,North,2,8.0,18.0,45,0.00,,,0.05,198.000000,,2013-11-03 17:53:00,
2013-11-03 13:02:00,61.0,40.0,29.77,North,2,8.0,18.0,45,0.00,,,0.05,198.000000,,2013-11-03 18:02:00,
2013-11-03 13:12:00,61.0,40.0,29.77,North,2,8.0,18.0,45,0.00,,,0.05,198.000000,,2013-11-03 18:12:00,
2013-11-03 13:42:00,65.0,41.0,29.75,NNE,13,5.0,17.0,41,0.00,,,0.05,517.000000,,2013-11-03 18:42:00,
2013-11-03 13:52:00,65.0,41.0,29.75,NNE,13,5.0,17.0,41,0.00,,,0.05,517.000000,,2013-11-03 18:52:00,
2013-11-03 14:02:00,65.0,41.0,29.75,NNE,13,5.0,17.0,41,0.00,,,0.05,517.000000,,2013-11-03 19:02:00,
2013-11-03 14:11:00,65.0,41.0,29.75,NNE,13,5.0,17.0,41,0.00,,,0.05,517.000000,,2013-11-03 19:11:00,
2013-11-03 14:42:00,61.0,36.0,29.75,North,358,8.0,16.0,39,0.00,,,0.05,450.000000,,2013-11-03 19:42:00,
2013-11-03 14:53:00,61.0,36.0,29.75,North,358,8.0,16.0,39,0.00,,,0.05,450.000000,,2013-11-03 19:53:00,
2013-11-03 15:02:00,61.0,36.0,29.75,North,358,8.0,16.0,39,0.00,,,0.05,450.000000,,2013-11-03 20:02:00,
2013-11-03 15:11:00,61.0,36.0,29.75,North,358,8.0,16.0,39,0.00,,,0.05,450.000000,,2013-11-03 20:11:00,
2013-11-03 15:42:00,64.0,38.0,29.76,NNE,14,7.0,20.0,38,0.00,,,0.05,456.000000,,2013-11-03 20:42:00,
2013-11-03 15:52:00,64.0,38.0,29.76,NNE,14,7.0,20.0,38,0.00,,,0.05,456.000000,,2013-11-03 20:52:00,
2013-11-03 16:02:00,64.0,38.0,29.76,NNE,14,7.0,20.0,38,0.00,,,0.05,456.000000,,2013-11-03 21:02:00,
2013-11-03 16:12:00,64.0,38.0,29.76,NNE,14,7.0,20.0,38,0.00,,,0.05,456.000000,,2013-11-03 21:12:00,
2013-11-03 16:43:00,61.0,36.0,29.78,North,5,5.0,15.0,40,0.00,,,0.05,271.000000,,2013-11-03 21:43:00,
2013-11-03 16:55:00,61.0,36.0,29.78,North,5,5.0,15.0,40,0.00,,,0.05,271.000000,,2013-11-03 21:55:00,
2013-11-03 17:03:00,61.0,36.0,29.78,North,5,5.0,15.0,40,0.00,,,0.05,271.000000,,2013-11-03 22:03:00,
2013-11-03 17:13:00,61.0,36.0,29.78,North,5,5.0,15.0,40,0.00,,,0.05,271.000000,,2013-11-03 22:13:00,
2013-11-03 17:43:00,54.0,40.0,29.80,North,3,3.0,10.0,58,0.00,,,0.00,79.000000,,2013-11-03 22:43:00,
2013-11-03 17:52:00,54.0,40.0,29.80,North,3,3.0,10.0,58,0.00,,,0.00,79.000000,,2013-11-03 22:52:00,
2013-11-03 18:02:00,54.0,40.0,29.80,North,3,3.0,10.0,58,0.00,,,0.00,79.000000,,2013-11-03 23:02:00,
2013-11-03 18:12:00,54.0,40.0,29.80,North,3,3.0,10.0,58,0.00,,,0.00,79.000000,,2013-11-03 23:12:00,
2013-11-03 18:42:00,47.0,42.0,29.82,NW,312,2.0,5.0,82,0.00,,,0.00,0.000000,,2013-11-03 23:42:00,
2013-11-03 18:53:00,47.0,42.0,29.82,NW,312,2.0,5.0,82,0.00,,,0.00,0.000000,,2013-11-03 23:53:00,
2013-11-03 19:02:00,47.0,42.0,29.82,NW,312,2.0,5.0,82,0.00,,,0.00,0.000000,,2013-11-04 00:02:00,
2013-11-03 19:11:00,47.0,42.0,29.82,NW,312,2.0,5.0,82,0.00,,,0.00,0.000000,,2013-11-04 00:11:00,
2013-11-03 19:42:00,43.0,42.0,29.85,NW,319,3.0,5.0,97,0.00,,,0.00,0.000000,,2013-11-04 00:42:00,
2013-11-03 19:52:00,43.0,42.0,29.85,NW,319,3.0,5.0,97,0.00,,,0.00,0.000000,,2013-11-04 00:52:00,
2013-11-03 20:02:00,43.0,42.0,29.85,NW,319,3.0,5.0,97,0.00,,,0.00,0.000000,,2013-11-04 01:02:00,
2013-11-03 20:11:00,43.0,42.0,29.85,NW,319,3.0,5.0,97,0.00,,,0.00,0.000000,,2013-11-04 01:11:00,
2013-11-03 20:42:00,42.0,42.0,29.88,NW,320,3.0,5.0,100,0.00,,,0.00,0.000000,,2013-11-04 01:42:00,
2013-11-03 20:52:00,42.0,42.0,29.88,NW,320,3.0,5.0,100,0.00,,,0.00,0.000000,,2013-11-04 01:52:00,
2013-11-03 21:02:00,42.0,42.0,29.88,NW,320,3.0,5.0,100,0.00,,,0.00,0.000000,,2013-11-04 02:02:00,
2013-11-03 21:12:00,42.0,42.0,29.88,NW,320,3.0,5.0,100,0.00,,,0.00,0.000000,,2013-11-04 02:12:00,
2013-11-03 21:42:00,41.0,39.0,29.91,NNE,26,2.0,12.0,93,0.00,,,0.00,0.000000,,2013-11-04 02:42:00,
2013-11-03 21:53:00,41.0,39.0,29.91,NNE,26,2.0,12.0,93,0.00,,,0.00,0.000000,,2013-11-04 02:53:00,
2013-11-03 22:02:00,41.0,39.0,29.91,NNE,26,2.0,12.0,93,0.00,,,0.00,0.000000,,2013-11-04 03:02:00,
2013-11-03 22:12:00,41.0,39.0,29.91,NNE,26,2.0,12.0,93,0.00,,,0.00,0.000000,,2013-11-04 03:12:00,
2013-11-03 22:44:00,40.0,39.0,29.92,NNE,24,1.0,6.0,97,0.00,,,0.00,0.000000,,2013-11-04 03:44:00,
2013-11-03 22:54:00,40.0,39.0,29.92,NNE,24,1.0,6.0,97,0.00,,,0.00,0.000000,,2013-11-04 03:54:00,
2013-11-03 23:04:00,40.0,39.0,29.92,NNE,24,1.0,6.0,97,0.00,,,0.00,0.000000,,2013-11-04 04:04:00,
2013-11-03 23:13:00,40.0,39.0,29.92,NNE,24,1.0,6.0,97,0.00,,,0.00,0.000000,,2013-11-04 04:13:00,
2013-11-03 23:43:00,38.0,38.0,29.94,SSW,192,2.0,4.0,100,0.00,,,0.00,0.000000,,2013-11-04 04:43:00,
2013-11-03 23:53:00,38.0,38.0,29.94,SSW,192,2.0,4.0,100,0.00,,,0.00,0.000000,,2013-11-04 04:53:00,